User: anonymous   Login
Location: Mercogliano
(40.9167°N, 14.7333°E)
Time: 03:10:03
(UTC+00:00)
Language:

Cosmos 1674 Rocket - Orbit

View from above orbital plane
View from above orbital plane
View from above satellite
View from above satellite

Ground track
Ground track

The orbit data is extracted from the following two-line orbital elements,

1 15945U 85069B   20332.89703171 +.00000123 +00000-0 +11803-4 0  9991
2 15945 082.5300 033.1900 0021265 085.0415 275.3228 14.84054205886777
Epoch (UTC): 27 November 2020 21:31:43
Eccentricity: 0.0021265
inclination: 82.5300°
perigee height: 601 km
apogee height: 631 km
right ascension of ascending node: 33.1900°
argument of perigee: 85.0415°
revolutions per day: 14.84054205
mean anomaly at epoch: 275.3228°
orbit number at epoch: 88677

The dashed part of the orbit path shows where the satellite is in the earth's shadow,  

DLR